This is the latest recevied weather packets stored in our database for station/object SQ6RR-12. If no packets are shown the sender has not sent any weather packets the latest 10 day(s).
| Time | Temp. | Humidity | Pressure | Rain* | Wind** | Luminosity | Snow |
|---|---|---|---|---|---|---|---|
| 1777446367 | 6.11° C | 56% | 1027.7 hPa | 0 mm | - | - | - |
| 1777446101 | 6.11° C | 60% | 1027.6 hPa | 0 mm | - | - | - |
| 1777445843 | 6.11° C | 59% | 1027.6 hPa | 0 mm | - | - | - |
| 1777445560 | 5.56° C | 63% | 1027.6 hPa | 0 mm | - | - | - |
| 1777445272 | 5.56° C | 64% | 1027.6 hPa | 0 mm | - | - | - |
| 1777445001 | 5.56° C | 62% | 1027.5 hPa | 0 mm | - | - | - |
| 1777444760 | 5.56° C | 64% | 1027.4 hPa | 0 mm | - | - | - |
| 1777444480 | 6.11° C | 64% | 1027.3 hPa | 0 mm | - | - | - |
| 1777444207 | 5.56° C | 68% | 1027.2 hPa | 0 mm | - | - | - |
| 1777443940 | 5.56° C | 67% | 1027.2 hPa | 0 mm | - | - | - |
| 1777443679 | 5° C | 71% | 1027.3 hPa | 0 mm | - | - | - |
| 1777443406 | 5° C | 74% | 1027.3 hPa | 0 mm | - | - | - |
| 1777443138 | 4.44° C | 79% | 1027.3 hPa | 0 mm | - | - | - |
| 1777442868 | 4.44° C | 80% | 1027.3 hPa | 0 mm | - | - | - |
| 1777442607 | 3.89° C | 86% | 1027.3 hPa | 0 mm | - | - | - |
| 1777442346 | 2.22° C | 96% | 1027.2 hPa | 0 mm | - | - | - |
| 1777442079 | 1.67° C | 10% | 1027.2 hPa | 0 mm | - | - | - |
| 1777441803 | 0° C | 10% | 1027.1 hPa | 0 mm | - | - | - |
| 1777441514 | -0.56° C | 10% | 1027.1 hPa | 0 mm | - | - | - |
| 1777441240 | -1.11° C | 10% | 1027 hPa | 0 mm | - | - | - |
| 1777440981 | -1.67° C | 10% | 1026.9 hPa | 0 mm | - | - | - |
| 1777440719 | -1.67° C | 10% | 1026.8 hPa | 0 mm | - | - | - |
| 1777440439 | -1.67° C | 10% | 1026.8 hPa | 0 mm | - | - | - |
| 1777440168 | -2.22° C | 10% | 1026.7 hPa | 0 mm | - | - | - |
| 1777439887 | -2.22° C | 10% | 1026.7 hPa | 0 mm | - | - | - |
* Rain latest hour (hover to see other rain measurements)
** Current wind speed in m/s (hover to see current wind gust speed)